[[{"header":{"parameterUnit":"m.s-1","parameterCategory":1,"la1":30.2991,"la2":30.254,"lo1":-89.0895,"lo2":-89.0444,"dy":0.0017,"dx":0.0017,"nx":28,"ny":28,"refTime":"2025-11-05T09:00:00:Z","depth":0,"parameterNumber":2,"parameterNumberName":"U-component_of_WINDS"},"data":[0,0,0,0,0,0,0,0,0,0,0,0,0,0,0,0,0,0,0,0,0,0,0,0,0,0,0,0,0,0,0,0,0,0,0,0,0,0,0,0,0,0,0,0,0,0,0,0,0,0,0,0,0,0,0,0,0,0,-4.9103,-4.9106,0,-4.9346,-4.9348,-4.9351,-4.9371,-4.9368,-4.9366,-4.9363,-4.9613,-4.9622,-4.9631,0,0,0,0,0,0,0,0,0,0,0,0,0,-4.8659,-4.8667,-4.9103,-4.9106,-4.9109,-4.9345,-4.9349,-4.9352,-4.9371,-4.9368,-4.9365,-4.9362,-4.961,-4.9621,-4.9632,0,0,0,0,0,0,0,0,0,0,0,0,0,-4.8872,-4.867,-4.9103,-4.9147,-4.9154,-4.9345,-4.9349,-4.9353,-4.9372,-4.9368,-4.9364,-4.9361,-4.9607,-4.962,-4.9633,-4.9796,0,0,-4.9675,-4.9681,0,0,0,0,0,0,0,0,-4.886,-4.8888,-4.9138,-4.9145,-4.9152,-4.9324,-4.9284,-4.9502,-4.9373,-4.9289,-4.9363,-4.9359,-4.952,-4.9541,-4.9595,-4.9808,-4.9819,-4.9676,-4.9684,-4.969,-4.9694,0,0,0,0,0,0,0,-4.8845,-4.8878,-4.9199,-4.9141,-4.915,-4.9156,-4.9182,-4.9325,-4.9424,-4.9296,-4.9298,-4.9327,-4.9523,-4.9582,-4.9601,-4.9822,-4.9676,-4.9688,-4.9696,-4.9702,-5.0181,-5.0185,0,0,0,0,0,0,-4.8821,-4.8865,-4.9191,-4.9206,-4.8993,-4.9167,-4.9196,-4.9273,-4.9422,-4.9441,-4.933,-4.9327,-4.956,-4.9585,-4.961,-4.9809,-4.969,-4.9703,-4.9711,-5.0176,-5.0182,-5.0186,0,0,0,0,0,0,-4.8812,-4.885,-4.9182,-4.9037,-4.9079,-4.9179,-4.9265,-4.928,-4.9338,-4.9448,-4.9466,-4.9371,-4.9558,-4.9591,-4.9749,-4.9818,-4.9709,-4.9722,-5.0171,-5.0178,-5.0184,-5.0209,0,0,0,0,0,0,-4.8799,-4.8847,-4.8909,-4.9038,-4.9087,-4.9317,-4.9269,-4.9287,-4.9361,-4.9359,-4.9491,-4.9509,-4.9558,-4.9729,-4.9763,-4.9835,-4.9732,-5.0165,-5.0174,-5.0182,-5.0203,-5.0216,-5.0228,0,0,0,0,0,-4.8783,-4.8907,-4.8912,-4.8952,-4.9167,-4.9321,-4.9349,-4.9401,-4.9367,-4.943,-4.9501,-4.9505,-4.9806,-4.9745,-4.9784,-4.986,-5.0161,-5.0171,-5.0181,-5.0197,-5.0214,-5.0227,0,0,0,0,0,0,-4.8785,-4.8925,-4.8932,-4.9102,-4.9199,-4.9324,-4.9406,-4.9417,-4.9527,-4.9521,-4.9582,-4.9612,-4.9768,-4.9831,-4.9761,-5.0026,-4.998,-4.9998,-4.9979,-4.9995,-5.0007,-4.9988,-4.9744,0,0,0,0,0,-4.8805,-4.8918,-4.9035,-4.9173,-4.9221,-4.9305,-4.9374,-4.9406,-4.951,-4.9551,-4.9634,-4.9734,-4.9851,-4.9927,-5.0041,-5.0213,-5.0241,-5.0285,-5.0297,-5.0307,-5.0321,-5.0415,-5.0436,-5.022,-5.022,-5.022,0,0,-4.8848,-4.8938,-4.9006,-4.9176,-4.9255,-4.937,-4.934,-4.9463,-4.9549,-4.957,-4.9724,-4.9789,-4.9905,-5.0071,-5.0148,-5.0128,-5.0388,-5.032,-5.0327,-5.0336,-5.0428,-5.0448,-5.0466,-5.0227,-5.0226,-5.0224,0,0,-4.8984,-4.9065,-4.9188,-4.9268,-4.9388,-4.9443,-4.9472,-4.9596,-4.9639,-4.9795,-4.9812,-4.9916,-5.0117,-5.0199,-5.0267,-5.0434,-5.0441,-5.047,-5.0534,-5.0625,-5.0642,-5.0657,-5.0715,-5.0735,-5.0485,-5.0485,-5.0485,0,-4.9022,-4.9196,-4.925,-4.9373,-4.9446,-4.9471,-4.9596,-4.9671,-4.9823,-4.9873,-4.9849,-5.01,-5.0181,-5.0365,-5.0405,-5.0461,-5.0496,-5.0454,-5.0635,-5.0651,-5.0666,-5.0722,-5.0744,-5.0487,-5.0487,-5.0487,-5.0486,0,-4.9235,-4.9356,-4.9441,-4.9585,-4.9669,-4.9793,-4.9866,-4.9945,-4.997,-5.0027,-5.0185,-5.0283,-5.0416,-5.0463,-5.049,-5.0651,-5.0635,-5.0622,-5.0576,-5.0688,-5.0741,-5.0763,-5.0491,-5.049,-5.0489,-5.0489,0,0,-4.9378,-4.9551,-4.9581,-4.9646,-4.9781,-4.9875,-5.0,-5.013,-5.0195,-5.0299,-5.0404,-5.0574,-5.0563,-5.064,-5.0676,-5.0756,-5.088,-5.0734,-5.0738,-5.0756,-5.1063,-5.1069,-5.1093,-5.0887,-5.0892,-5.0895,-5.1052,0,-4.9527,-4.9748,-4.9801,-4.9991,-5.0102,-5.0127,-5.0235,-5.033,-5.0387,-5.0491,-5.0555,-5.0673,-5.065,-5.0697,-5.0778,-5.0848,-5.0942,-5.0838,-5.0985,-5.0989,-5.0952,-5.1121,-5.1129,-5.1272,-5.1073,-5.1077,-5.108,0,-4.973,-4.9837,-5.0038,-5.0157,-5.0205,-5.0302,-5.0424,-5.0523,-5.0631,-5.0667,-5.0753,-5.0781,-5.0912,-5.0862,-5.1042,-5.097,-5.1034,-5.1078,-5.1085,-5.1098,-5.1039,-5.1137,-5.1319,-5.1339,-5.1113,-5.1111,-5.1108,0,-4.9811,-5.0006,-5.015,-5.0206,-5.0349,-5.0416,-5.0479,-5.0583,-5.0657,-5.0765,-5.0814,-5.0936,-5.1003,-5.1097,-5.1157,-5.1115,-5.1332,-5.1287,-5.1365,-5.1363,-5.1407,-5.1403,-5.16,-5.1453,-5.1453,-5.1452,-5.1452,0,-4.997,-5.0091,-5.0188,-5.0277,-5.0413,-5.0473,-5.0606,-5.067,-5.0762,-5.0864,-5.0895,-5.0989,-5.1064,-5.117,-5.1218,-5.1359,-5.139,-5.1422,-5.1433,-5.1418,-5.1413,-5.1458,-5.1449,-5.1458,-5.1457,-5.1456,-5.1455,0,-5.0082,-5.0152,-5.0311,-5.0433,-5.0467,-5.0562,-5.0667,-5.0754,-5.0813,-5.0941,-5.0974,-5.1067,-5.1192,-5.1262,-5.1421,-5.1453,-5.161,-5.1617,-5.1572,-5.1577,-5.1649,-5.164,-5.1879,-5.1913,-5.1746,-5.1748,-5.1749,0,-5.0177,-5.0271,-5.0403,-5.0473,-5.0536,-5.0649,-5.0724,-5.0788,-5.0866,-5.0995,-5.1067,-5.1194,-5.1298,-5.1498,-5.1579,-5.17,-5.1709,-5.1785,-5.1727,-5.1709,-5.1707,-5.1699,-5.1708,-5.1793,-5.1795,-5.1796,-5.1797,0,-5.0339,-5.0368,-5.0476,-5.0596,-5.0685,-5.0783,-5.088,-5.0936,-5.1016,-5.1102,-5.123,-5.1311,-5.1472,-5.1597,-5.1725,-5.179,-5.1807,-5.1815,-5.1839,-5.1823,-5.1792,-5.1807,-5.1596,-5.1808,-5.1807,-5.1806,-5.1806,-5.1805,-5.0443,-5.0527,-5.0632,-5.0751,-5.0831,-5.0921,-5.1008,-5.1078,-5.1185,-5.132,-5.1352,-5.1486,-5.1592,-5.1765,-5.1834,-5.194,-5.1926,-5.1961,-5.197,-5.1977,-5.1978,-5.1777,-5.1964,-5.1964,-5.1964,-5.1964,-5.1964,0,-5.0604,-5.0673,-5.0782,-5.0916,-5.1009,-5.1017,-5.1125,-5.1203,-5.132,-5.1417,-5.1519,-5.1666,-5.1788,-5.1879,-5.2004,-5.2072,-5.2082,-5.2102,-5.2096,-5.211,-5.1985,-5.195,-5.2091,-5.2091,-5.2091,-5.2091,-5.2091,-5.2091,-5.0698,-5.0838,-5.0881,-5.1062,-5.1131,-5.1262,-5.1323,-5.1406,-5.1483,-5.1645,-5.1746,-5.1805,-5.19,-5.2032,-5.2144,-5.2168,-5.2211,-5.2229,-5.2253,-5.2133,-5.212,-5.2106,-5.2074,-5.2239,-5.2239,-5.237,-5.2372,-5.2372]},{"header":{"parameterUnit":"m.s-1","parameterCategory":1,"la1":30.2991,"la2":30.254,"lo1":-89.0895,"lo2":-89.0444,"dy":0.0017,"dx":0.0017,"nx":28,"ny":28,"refTime":"2025-11-05T09:00:00:Z","depth":0,"parameterNumber":3,"parameterNumberName":"V-component_of_WINDS"},"data":[0,0,0,0,0,0,0,0,0,0,0,0,0,0,0,0,0,0,0,0,0,0,0,0,0,0,0,0,0,0,0,0,0,0,0,0,0,0,0,0,0,0,0,0,0,0,0,0,0,0,0,0,0,0,0,0,0,0,0.301,0.3015,0,0.3504,0.351,0.3515,0.3645,0.3642,0.3639,0.3636,0.4154,0.417,0.4187,0,0,0,0,0,0,0,0,0,0,0,0,0,0.2196,0.221,0.3009,0.3016,0.3022,0.3503,0.351,0.3517,0.3645,0.3642,0.3638,0.3635,0.4149,0.4168,0.4188,0,0,0,0,0,0,0,0,0,0,0,0,0,0.2605,0.2214,0.3008,0.3144,0.3161,0.3502,0.351,0.3519,0.3646,0.3642,0.3637,0.3633,0.4142,0.4166,0.4191,0.4436,0,0,0.4267,0.4278,0,0,0,0,0,0,0,0,0.2582,0.2635,0.3118,0.3135,0.3155,0.3508,0.3413,0.3827,0.3647,0.3462,0.3636,0.3631,0.3944,0.3985,0.4088,0.4461,0.4483,0.4269,0.4285,0.4295,0.4302,0,0,0,0,0,0,0,0.2554,0.2615,0.3206,0.3125,0.3147,0.3186,0.3239,0.3492,0.3723,0.3478,0.3489,0.3545,0.3953,0.4063,0.4101,0.449,0.4269,0.4291,0.4306,0.4316,0.5105,0.511,0,0,0,0,0,0,0.25,0.259,0.319,0.322,0.2851,0.3204,0.3264,0.3399,0.372,0.3765,0.3548,0.3549,0.4023,0.4072,0.412,0.4438,0.4295,0.4318,0.4333,0.5099,0.5106,0.5112,0,0,0,0,0,0,0.2482,0.2552,0.317,0.2909,0.299,0.3223,0.3374,0.3412,0.3522,0.3773,0.3817,0.3617,0.4021,0.4084,0.4359,0.4458,0.433,0.4352,0.5092,0.5101,0.5109,0.507,0,0,0,0,0,0,0.2458,0.2544,0.2635,0.2909,0.3003,0.3395,0.338,0.3425,0.3563,0.3569,0.385,0.3892,0.4023,0.4321,0.4384,0.449,0.4372,0.5084,0.5096,0.5106,0.5064,0.5076,0.5087,0,0,0,0,0,0.2428,0.2604,0.2639,0.271,0.3121,0.34,0.3455,0.3598,0.357,0.3668,0.3831,0.3883,0.4435,0.4348,0.442,0.4534,0.5079,0.5092,0.5105,0.5058,0.5074,0.5087,0,0,0,0,0,0,0.2336,0.2642,0.2684,0.2952,0.3149,0.3421,0.3547,0.3608,0.382,0.3817,0.3989,0.4052,0.4318,0.4453,0.435,0.4796,0.4758,0.4787,0.4698,0.4715,0.4726,0.4691,0.4393,0,0,0,0,0,0.2347,0.2543,0.2801,0.3014,0.3111,0.3312,0.3439,0.3533,0.3745,0.383,0.4013,0.4221,0.4444,0.4586,0.4803,0.5083,0.5153,0.5198,0.521,0.5218,0.5243,0.5414,0.5441,0.5157,0.5156,0.5156,0,0,0.2371,0.2563,0.2676,0.3001,0.3164,0.3372,0.3381,0.3597,0.3755,0.3864,0.4137,0.4278,0.4523,0.4805,0.4938,0.4926,0.5337,0.5235,0.524,0.5261,0.5431,0.5457,0.5481,0.5166,0.5164,0.5163,0,0,0.2524,0.2683,0.2884,0.3049,0.3296,0.3431,0.3479,0.3745,0.3843,0.4118,0.4208,0.4401,0.4775,0.495,0.5088,0.5317,0.5378,0.5383,0.5447,0.5612,0.5634,0.5655,0.5747,0.5777,0.5405,0.5405,0.5405,0,0.2525,0.2835,0.298,0.3195,0.334,0.3447,0.3657,0.3811,0.4118,0.4219,0.42,0.4681,0.4852,0.5182,0.5239,0.5343,0.5412,0.5353,0.5618,0.5641,0.5663,0.5753,0.5786,0.5405,0.5405,0.5405,0.5405,0,0.283,0.3044,0.3177,0.3471,0.3631,0.3841,0.4026,0.4172,0.4254,0.4392,0.4678,0.4888,0.5155,0.5239,0.532,0.5585,0.5571,0.5582,0.555,0.5687,0.5775,0.581,0.5404,0.5405,0.5405,0.5405,0,0,0.2936,0.3312,0.3359,0.3499,0.3784,0.3957,0.4177,0.4437,0.4563,0.4773,0.4969,0.5288,0.5305,0.5461,0.5564,0.5707,0.5889,0.5704,0.5712,0.5739,0.6207,0.6201,0.6238,0.5928,0.5935,0.5941,0.6189,0,0.3131,0.3524,0.3666,0.3993,0.42,0.4309,0.4503,0.4704,0.4841,0.5042,0.5196,0.5424,0.5421,0.5519,0.5664,0.5835,0.5987,0.5818,0.6122,0.6131,0.6064,0.6282,0.6276,0.6499,0.6223,0.6229,0.6233,0,0.3409,0.3624,0.3971,0.4241,0.4334,0.4504,0.476,0.4947,0.5182,0.5273,0.5451,0.5547,0.5791,0.5739,0.6085,0.5968,0.6101,0.6205,0.6217,0.6257,0.6195,0.6337,0.6573,0.661,0.6287,0.6283,0.6279,0,0.3464,0.384,0.41,0.4215,0.4533,0.4653,0.4792,0.5021,0.5172,0.5396,0.5498,0.5748,0.5887,0.6082,0.6247,0.6192,0.6582,0.654,0.6673,0.6669,0.6754,0.6748,0.7024,0.6826,0.6825,0.6825,0.6824,0,0.3671,0.3882,0.4131,0.4291,0.4534,0.4698,0.4937,0.5084,0.5288,0.5486,0.5594,0.5779,0.598,0.6194,0.6323,0.6597,0.6656,0.6744,0.6778,0.6739,0.6729,0.6833,0.6826,0.6834,0.6832,0.683,0.6828,0,0.3775,0.3948,0.424,0.4519,0.4595,0.4763,0.5006,0.5171,0.5315,0.5564,0.5633,0.5861,0.6118,0.63,0.663,0.6719,0.7017,0.7044,0.6938,0.6956,0.7082,0.7071,0.7441,0.7503,0.7253,0.7255,0.7257,0,0.3898,0.4064,0.4362,0.4501,0.464,0.4862,0.5018,0.5188,0.5347,0.5632,0.5765,0.603,0.6251,0.6659,0.6859,0.7116,0.7157,0.7269,0.7196,0.7156,0.7171,0.7162,0.7185,0.7281,0.7283,0.7284,0.7286,0,0.4104,0.4184,0.44,0.4653,0.4835,0.5041,0.5249,0.5359,0.5568,0.5743,0.6007,0.6178,0.6519,0.6785,0.7063,0.7214,0.729,0.7306,0.7353,0.7319,0.7254,0.7302,0.6977,0.7299,0.7297,0.7296,0.7296,0.7295,0.4229,0.4385,0.4622,0.4865,0.504,0.5234,0.5406,0.5573,0.5795,0.6085,0.6173,0.6451,0.6693,0.7073,0.7229,0.7454,0.7448,0.7511,0.753,0.7545,0.755,0.7211,0.7504,0.7504,0.7504,0.7504,0.7503,0,0.4448,0.4607,0.4828,0.5118,0.5312,0.5361,0.5597,0.5758,0.6,0.6216,0.6433,0.6744,0.7004,0.7226,0.7498,0.7636,0.7679,0.7703,0.7699,0.7735,0.7534,0.7471,0.7665,0.7665,0.7665,0.7665,0.7665,0.7665,0.4585,0.4857,0.4966,0.533,0.549,0.5761,0.5893,0.6077,0.6252,0.6593,0.681,0.6951,0.7175,0.7465,0.771,0.777,0.787,0.7888,0.7956,0.7766,0.7747,0.773,0.7673,0.7905,0.7906,0.8141,0.8143,0.8144]}]]